Terug naar catalogus

STARLINK-36776

ActiefCommunicatieSSO
NORAD 100389·PAYLOAD·🇺🇸 United States

Gelanceerd Aug 19, 2026 vanaf Vandenberg Space Force Base

Loading…

Volgende Passages (komende 24 uur)

TLE

VersSource: Space-Track

Epoch: Sep 14, 2026, 12:59 UTC

1 A0389U 26190U   26257.54125333  .00223861  00000-0  14579-2 0  9996
2 A0389  97.2837 111.5430 0001525  88.1997 271.9443 15.75266317  5400

Volg STARLINK-36776 in realtime met AllMySat

Download on the App Store